GFSNE_sfc_thetae_189.txt.gz
Theta_e
331 330 327 325 325 323 321 319 315 310 312 318 318 324 324 325 327 328 329 327 328 328 327 327 329 330 330 330 330 331 332 333 335 336 338 340 342 342
328 327 325 323 322 320 318 318 318 312 310 317 319 322 325 325 324 324 324 324 326 324 326 328 329 330 329 327 327 328 330 333 333 334 334 335 337 338
328 326 324 322 318 317 317 317 315 315 310 317 320 323 323 322 322 322 322 321 320 324 322 325 327 327 327 325 325 326 326 327 329 330 331 333 335 336
326 324 320 318 318 318 316 316 316 317 312 313 316 316 318 318 318 318 317 317 321 322 323 324 326 325 324 323 323 323 322 322 323 324 326 329 331 334
325 321 318 317 316 315 315 314 314 314 314 312 311 312 313 314 314 316 316 319 320 322 323 323 323 322 322 322 321 319 318 317 318 319 320 322 325 329
323 319 316 315 314 315 314 314 313 312 312 309 308 308 310 313 312 310 311 316 316 319 322 322 321 322 322 322 322 321 318 316 315 315 316 316 316 321
320 317 314 313 311 311 312 313 313 310 308 307 306 307 307 309 309 311 311 314 317 319 317 318 320 322 323 322 321 320 319 318 316 315 314 314 314 315
318 315 315 312 312 310 309 308 309 309 307 306 306 306 308 310 311 311 311 311 309 318 315 316 320 320 322 321 320 319 318 317 317 316 316 314 314 314
318 317 315 313 313 313 310 308 308 307 307 308 308 308 309 312 312 312 313 312 312 315 316 312 318 317 321 321 319 318 316 316 316 316 316 315 314 313
319 317 316 314 313 311 311 310 310 310 310 307 310 311 312 313 313 313 313 314 315 315 319 311 315 315 319 322 321 320 317 316 316 315 315 314 312 310
318 316 315 312 307 306 309 308 309 310 309 309 308 308 308 308 308 311 312 310 309 311 317 312 313 313 316 319 322 320 317 314 313 313 313 312 310 309
314 314 306 308 304 304 308 308 307 307 307 308 312 313 314 315 309 314 312 309 309 309 315 310 311 311 308 317 318 322 323 315 311 310 310 309 308 311
311 310 310 304 302 302 302 308 305 304 306 309 310 311 312 312 312 314 315 312 310 310 315 313 310 310 311 311 315 321 318 318 315 313 309 307 306 309
310 311 309 301 300 301 304 301 302 304 307 308 308 308 308 308 310 312 315 316 316 316 318 317 310 310 310 309 311 317 316 316 317 312 310 309 307 308
312 307 304 301 301 305 302 302 303 307 306 306 306 306 307 309 312 312 314 316 316 317 314 316 311 312 311 310 312 314 310 312 312 308 307 306 308 311
304 308 305 302 300 303 305 306 306 306 305 305 305 307 308 307 307 309 308 309 309 309 315 314 313 312 310 311 314 312 311 306 307 306 306 305 309 315
308 309 310 308 307 306 304 304 305 306 305 305 304 304 304 305 306 308 308 308 306 306 307 308 312 314 311 311 312 310 308 305 306 305 303 301 311 311
306 308 308 307 305 304 302 302 304 304 304 304 304 303 303 303 304 306 307 306 306 306 306 306 306 307 306 310 312 308 306 304 304 305 302 300 305 306
308 308 308 306 305 303 302 302 303 304 305 303 303 303 303 304 304 304 305 305 305 306 306 306 305 303 297 297 307 309 304 303 302 303 300 299 300 303
308 309 308 307 305 302 302 303 303 303 303 303 303 304 304 304 304 304 305 304 304 304 304 305 305 301 299 300 302 308 304 304 300 298 298 300 302 305
307 308 309 307 304 303 303 304 304 302 302 303 303 303 304 304 304 305 305 301 302 303 302 302 305 306 305 307 304 303 305 305 303 299 297 297 297 297
307 307 308 307 304 304 304 304 303 303 303 302 303 304 304 305 304 304 304 303 303 303 303 305 306 306 304 301 300 300 300 302 304 302 300 299 296 292
307 307 307 305 304 304 303 302 301 301 303 302 303 304 305 304 305 304 304 304 303 302 302 302 304 305 304 302 299 298 298 298 300 298 296 298 299 300

GFSNE_sfc_thetae_192.txt.gz
Theta_e
335 333 329 328 327 325 323 322 319 315 316 322 322 329 328 329 330 330 329 328 326 329 327 326 327 329 329 327 327 329 330 329 331 332 332 334 335 339
332 333 330 326 325 324 324 323 322 319 315 321 323 327 328 327 325 326 324 327 328 327 325 325 326 328 328 327 326 326 327 327 328 328 332 333 335 337
334 331 327 327 324 324 324 323 322 322 317 319 322 323 324 322 321 322 322 322 320 328 325 325 326 327 326 325 324 324 325 324 324 324 326 327 330 333
331 329 324 323 325 326 323 324 323 322 318 317 319 316 319 321 321 321 319 320 324 327 325 324 324 324 323 323 323 323 322 321 321 322 322 323 325 327
330 326 322 323 323 322 322 320 318 317 317 313 313 314 316 317 318 321 322 325 322 327 328 326 325 324 322 321 321 320 318 317 317 317 318 319 321 323
328 324 322 321 320 320 319 320 318 316 315 312 311 312 313 318 317 315 315 318 318 320 325 323 324 326 324 323 323 322 318 316 315 315 316 315 316 318
327 323 320 315 311 312 312 314 315 312 310 309 309 310 311 313 314 315 314 316 320 319 319 320 319 321 322 325 326 322 319 317 316 315 315 314 314 315
325 323 322 316 315 312 310 310 311 311 310 309 308 310 314 315 315 315 315 314 312 321 318 317 320 319 320 321 321 321 319 317 317 317 316 315 314 314
325 324 320 319 317 315 315 313 314 311 310 312 310 312 314 316 317 315 316 315 315 318 319 314 319 316 319 319 322 320 318 317 317 316 315 314 313 312
325 323 322 319 316 310 312 314 314 315 315 310 311 314 316 317 316 315 316 319 318 316 322 313 316 314 317 318 322 320 318 317 316 315 314 312 310 309
323 322 318 316 306 306 311 314 315 315 312 311 311 312 312 312 312 314 313 312 310 312 317 314 313 313 314 315 320 318 317 316 314 314 313 312 309 307
319 319 306 308 305 304 309 313 311 310 310 313 317 317 317 319 315 317 315 311 310 310 317 312 311 312 309 314 316 319 321 313 312 311 310 309 307 311
316 314 314 304 303 303 303 311 306 306 312 313 313 313 314 314 313 315 318 314 311 311 316 315 312 311 310 309 313 317 320 319 318 314 308 307 306 307
316 316 313 303 302 302 304 302 303 305 312 311 311 310 310 311 312 314 317 317 317 316 319 319 312 310 309 309 309 314 319 318 316 312 310 308 306 307
316 308 306 303 303 304 303 304 304 310 309 309 309 309 310 311 314 316 316 322 323 322 317 319 314 312 311 309 309 311 313 313 314 309 309 305 305 309
306 310 310 306 305 310 308 309 310 310 309 309 308 309 310 309 309 310 310 311 310 311 319 319 317 315 310 310 310 310 311 308 310 307 308 304 304 310
312 313 312 313 312 312 310 310 310 310 309 309 308 308 308 308 308 310 309 309 308 308 309 311 318 318 313 312 308 310 308 308 308 306 305 301 303 308
307 311 312 312 311 310 308 308 310 309 309 308 308 307 307 307 307 309 309 309 307 307 308 309 309 308 308 309 311 308 307 305 306 306 303 298 299 303
309 311 312 313 312 309 308 308 308 309 311 308 307 307 308 307 307 307 308 308 306 307 307 309 308 306 300 298 307 309 304 303 304 303 301 299 298 301
310 311 312 313 313 309 309 308 308 308 307 307 307 307 308 307 307 307 307 306 306 306 306 307 307 306 303 302 303 308 304 303 301 301 298 299 301 303
310 310 312 314 311 310 311 311 310 307 306 307 307 307 307 308 307 307 307 302 303 305 304 304 307 309 310 309 303 302 305 305 303 299 297 295 296 297
310 311 311 313 310 310 311 310 308 307 307 306 306 307 308 308 306 306 306 305 305 304 304 306 309 307 307 302 300 300 301 303 304 302 299 297 295 291
310 311 310 309 308 308 309 308 305 304 306 306 306 307 308 305 306 306 306 305 305 304 304 304 305 305 305 302 301 300 300 300 299 298 297 297 298 299

GFSNE_sfc_thetae_195.txt.gz
Theta_e
336 334 331 328 328 327 326 325 321 316 316 323 321 334 329 326 328 325 327 328 327 330 330 327 326 326 328 327 326 327 327 327 327 328 330 332 329 327
331 334 332 328 328 327 327 326 324 320 315 320 321 327 327 323 325 327 325 327 327 329 326 325 325 326 327 328 325 325 325 326 325 325 326 327 330 331
334 332 329 330 327 327 327 326 324 322 317 319 321 324 330 327 325 324 323 327 323 328 327 325 325 325 326 327 325 324 323 323 323 323 323 324 325 327
331 330 327 325 329 330 326 327 324 323 317 321 323 318 325 329 328 328 323 322 325 328 326 327 327 325 325 324 323 322 322 321 320 319 320 321 322 323
330 328 325 326 327 325 325 323 320 319 319 315 315 316 317 320 320 326 326 328 322 328 328 329 327 326 325 324 321 320 318 318 317 317 318 319 320 321
329 327 325 324 322 321 319 321 319 316 317 313 312 312 314 322 319 316 315 319 319 320 325 324 325 327 328 326 323 322 319 316 315 315 316 316 316 317
328 325 323 315 311 312 313 314 315 312 311 310 310 310 312 314 316 316 314 316 319 321 320 321 322 322 322 324 326 326 320 318 316 315 315 314 314 315
327 325 324 319 319 317 315 313 314 314 313 311 309 310 318 316 316 314 314 312 312 321 319 319 322 320 320 321 323 322 319 318 318 316 315 315 314 314
327 326 322 321 320 315 316 318 319 317 314 316 313 313 314 317 317 316 317 314 314 319 321 314 320 318 320 317 324 320 318 318 317 317 316 315 313 312
326 325 324 322 313 310 311 316 317 318 319 314 315 314 317 319 317 318 320 321 319 318 322 312 317 315 319 320 323 319 318 317 317 316 315 313 310 309
325 324 321 319 306 306 311 315 317 316 315 316 314 313 313 314 314 315 312 312 309 312 317 313 313 314 316 317 319 318 316 314 315 315 314 311 308 307
324 323 308 310 304 304 309 313 312 310 310 315 317 322 319 319 316 319 317 310 310 309 316 312 312 313 310 314 316 319 319 314 312 310 310 307 306 308
318 318 315 306 304 304 303 311 307 306 311 315 316 314 317 317 314 317 322 314 311 310 315 315 313 312 310 310 312 317 319 317 318 316 310 306 305 305
318 316 311 306 305 305 305 303 304 305 312 312 312 311 311 311 313 315 324 322 318 320 323 328 312 311 309 309 308 313 316 317 316 314 313 309 307 305
318 306 306 305 303 304 305 307 306 312 311 310 310 310 311 312 320 318 319 325 323 325 321 326 317 315 310 308 308 310 311 312 313 312 310 308 307 304
309 310 311 309 305 310 310 310 312 312 311 310 310 311 312 311 311 311 310 311 311 312 321 324 326 318 309 309 308 308 310 306 311 310 308 308 306 304
314 316 313 314 314 315 314 312 312 312 311 311 310 310 310 310 310 311 311 310 308 308 308 312 320 321 315 313 306 307 308 307 308 308 306 303 304 303
310 313 313 314 313 313 311 310 312 313 311 311 310 310 309 309 308 310 310 309 307 307 308 310 311 310 309 312 312 307 306 305 306 307 305 301 300 302
310 314 313 313 314 314 310 310 310 311 315 311 310 310 309 308 308 308 308 307 306 307 308 310 309 307 303 302 307 309 304 304 303 302 302 300 298 301
311 314 313 314 313 313 311 311 311 311 310 310 310 309 309 308 308 307 307 307 306 307 305 307 307 306 304 303 302 306 304 303 302 300 297 299 301 302
310 313 314 313 313 312 312 312 312 310 308 310 309 309 309 309 307 307 306 302 303 306 303 304 308 309 310 307 301 301 303 304 301 296 295 295 293 295
314 313 314 314 313 312 312 312 310 309 309 309 308 309 309 308 306 306 306 305 305 305 304 306 309 307 304 302 299 299 299 302 303 302 298 296 292 289
314 313 313 312 311 310 310 309 307 307 309 308 308 309 308 305 307 306 306 305 305 304 304 304 303 303 302 301 299 297 298 298 298 296 297 296 296 296

GFSNE_sfc_thetae_201.txt.gz
Theta_e
324 323 321 319 320 322 319 317 312 306 307 311 311 315 316 313 317 316 316 325 331 331 331 330 330 328 328 329 329 328 325 327 326 326 326 326 327 328
325 323 321 319 320 322 319 319 314 312 306 309 311 311 316 316 321 315 315 329 327 330 331 330 329 327 328 328 329 329 327 326 326 325 324 325 325 325
323 321 320 320 320 321 319 317 314 310 306 307 310 313 310 313 315 314 318 315 314 326 330 330 328 327 328 328 328 328 328 326 325 323 323 323 323 324
323 320 317 322 319 318 316 314 311 310 305 303 306 306 309 313 311 311 316 317 314 323 327 328 328 328 326 324 324 324 324 324 324 322 322 323 323 324
321 319 317 317 315 312 309 309 307 307 306 305 302 305 306 310 308 310 311 309 314 322 323 325 325 325 325 324 322 320 319 318 320 319 320 321 321 321
320 318 317 314 310 308 308 304 303 304 304 302 302 302 304 306 305 307 307 307 310 314 318 321 323 325 324 323 324 322 317 314 314 314 316 316 316 318
321 319 314 315 319 313 307 304 304 303 304 302 301 301 301 301 300 305 304 305 308 308 309 314 314 311 312 315 323 326 320 317 315 314 313 313 313 314
319 317 314 321 318 319 319 320 312 304 302 303 302 301 302 301 303 303 304 303 303 309 308 310 310 307 309 310 322 322 321 319 318 315 314 313 313 314
320 319 318 318 316 311 311 312 314 320 319 305 303 304 303 302 302 302 303 303 304 310 308 304 307 305 309 312 317 318 316 318 317 316 315 314 313 311
322 319 315 309 304 302 300 303 307 310 304 314 308 307 306 305 305 308 307 305 306 307 306 303 305 304 307 310 316 316 315 315 316 316 314 312 309 307
319 317 314 305 307 308 301 302 303 307 310 311 313 314 315 316 316 306 303 303 303 303 306 304 304 304 306 306 308 314 313 314 315 314 313 311 307 306
317 312 317 306 307 305 298 299 301 301 300 299 303 307 310 311 319 308 305 303 303 301 307 302 305 303 302 304 305 305 306 313 311 311 310 309 306 302
318 310 304 308 305 304 303 298 301 302 300 299 301 305 305 305 305 308 309 308 305 302 310 307 305 305 301 300 301 304 302 303 308 308 306 305 304 304
316 315 307 305 302 302 303 303 305 306 299 301 303 302 302 303 305 306 308 305 307 308 312 307 305 304 301 298 299 305 301 302 305 303 303 305 305 306
312 310 307 302 302 302 305 305 306 300 301 300 301 301 303 305 304 305 304 305 306 306 309 304 303 306 301 300 302 303 300 305 306 303 301 300 300 303
312 305 305 303 303 302 305 305 303 301 302 302 301 303 303 303 302 303 301 303 302 301 305 304 303 301 298 303 299 298 300 298 301 299 299 300 302 300
304 300 299 299 299 300 302 304 307 304 303 301 301 302 301 301 302 302 302 301 297 298 298 302 301 301 301 300 297 296 296 295 296 297 296 296 297 295
306 302 299 301 302 303 306 304 303 307 302 301 302 301 301 301 300 301 301 301 297 298 298 297 298 298 298 298 304 298 297 294 295 295 293 293 293 294
304 305 304 305 307 306 303 301 302 302 302 303 301 302 301 301 301 301 300 300 298 297 296 296 296 296 294 291 295 305 296 297 296 294 296 294 291 292
303 304 303 306 306 305 302 302 302 303 300 300 301 301 300 300 300 299 298 298 296 295 294 294 294 294 293 291 292 295 301 296 296 295 293 291 292 297
302 301 303 308 306 304 304 303 302 302 300 299 302 300 300 300 297 298 298 299 297 294 293 292 294 303 296 294 291 292 295 300 299 295 292 291 289 290
302 301 303 308 307 305 304 304 302 302 300 300 300 300 300 298 297 297 298 297 295 294 294 294 295 294 292 291 290 290 291 293 296 297 296 294 290 287
304 302 306 307 305 305 304 303 302 300 300 299 299 299 300 296 298 296 297 298 295 295 294 293 293 293 292 291 292 290 289 289 290 289 288 294 295 295

GFSNE_sfc_thetae_204.txt.gz
Theta_e
321 319 318 316 318 318 315 314 310 305 306 309 308 310 311 313 316 316 313 321 331 331 330 330 331 331 331 330 330 330 328 326 327 327 327 326 327 328
322 319 317 316 317 317 317 313 312 309 304 307 308 308 311 313 320 312 315 323 323 327 328 327 330 330 329 329 329 329 329 328 327 327 326 325 325 326
320 319 316 317 317 316 315 313 311 308 303 305 306 308 308 308 309 311 314 311 311 321 327 326 327 328 328 328 329 329 329 329 328 327 326 325 325 325
321 317 315 320 315 313 311 309 304 304 302 299 303 303 306 309 306 308 311 312 308 318 325 325 325 325 325 325 325 324 325 326 326 326 326 325 324 324
320 317 315 315 311 308 306 303 302 303 302 302 300 302 303 305 302 307 307 305 311 319 322 322 323 324 323 321 321 320 318 319 320 321 322 322 322 323
319 317 316 314 310 305 306 302 301 301 302 301 300 301 301 302 300 303 303 304 307 312 316 319 321 323 321 321 320 323 318 315 314 315 316 316 317 319
318 316 314 315 317 311 305 301 300 300 300 301 301 300 300 300 298 302 301 303 306 306 307 309 310 309 308 313 315 321 319 319 315 314 313 313 312 314
317 315 313 323 319 320 319 317 307 302 301 300 300 299 300 300 299 299 301 301 300 306 305 306 308 306 306 307 317 320 317 316 317 316 314 313 313 313
318 315 313 316 315 312 317 311 311 316 318 305 302 301 301 301 299 299 301 301 301 306 306 303 305 305 306 309 315 317 316 315 315 316 314 314 313 311
320 317 314 311 307 304 298 299 303 305 306 308 307 305 305 306 302 302 303 302 304 306 306 301 304 303 305 307 315 316 314 314 315 314 313 311 309 307
321 318 312 307 309 308 298 298 299 303 309 310 310 311 313 314 314 304 300 299 299 301 303 302 302 302 303 305 307 312 312 314 314 313 312 311 308 306
316 315 319 307 309 307 296 297 297 297 297 298 300 304 307 306 317 306 301 300 299 300 303 301 301 301 301 304 304 303 303 310 311 310 310 309 306 303
317 311 313 310 306 304 301 297 298 300 300 297 300 302 301 301 303 302 304 304 301 300 305 305 302 301 300 299 299 301 305 303 306 308 306 304 304 304
319 316 311 307 302 302 302 301 303 305 298 298 299 299 300 301 303 303 303 301 305 304 305 302 300 300 298 295 295 300 303 304 303 303 303 304 303 304
318 317 311 304 301 301 304 304 305 299 297 298 298 298 300 302 302 302 302 302 303 302 304 301 299 298 296 295 296 298 298 299 299 297 298 297 297 298
314 314 315 307 303 300 300 302 301 299 298 299 299 299 301 300 300 299 298 300 298 298 301 302 299 297 295 296 296 294 295 295 299 295 295 295 296 296
305 304 304 299 296 295 298 300 301 301 301 300 298 299 299 299 298 299 298 298 295 295 295 297 298 297 297 296 295 295 297 296 296 295 292 293 293 293
304 304 303 297 297 296 298 300 302 305 301 299 300 299 299 298 297 298 297 296 294 294 294 294 294 294 294 294 299 294 294 294 296 296 294 293 292 292
309 305 302 299 300 300 302 303 301 301 299 300 298 299 299 298 298 297 296 295 293 293 293 294 292 291 289 288 291 301 292 294 293 294 294 292 289 290
309 308 305 302 304 304 303 300 300 300 299 298 298 300 298 297 297 295 295 294 293 292 293 292 291 291 290 289 289 293 299 291 291 292 288 288 291 296
305 306 306 304 305 304 301 301 301 300 298 297 298 298 297 298 294 295 296 297 295 292 291 290 292 300 294 291 289 289 290 296 294 291 289 288 288 290
305 305 306 306 306 303 302 301 300 300 299 297 299 297 297 296 294 294 295 294 294 292 291 292 293 292 291 289 288 287 287 289 292 294 294 293 289 287
306 308 305 306 305 302 303 302 301 300 299 299 297 296 297 294 294 294 295 294 293 292 292 291 291 290 290 289 289 287 285 286 287 287 287 293 294 295

GFSNE_sfc_thetae_207.txt.gz
Theta_e
317 317 314 314 315 314 314 312 308 303 304 308 307 308 309 310 320 311 312 325 324 327 328 328 329 330 332 333 331 330 330 329 327 328 328 328 327 328
319 316 314 314 315 314 312 311 310 307 303 306 307 306 308 309 315 311 312 319 318 322 326 326 328 329 328 330 331 330 330 329 329 328 328 327 326 326
319 316 315 314 314 313 312 310 308 305 302 303 304 305 305 306 304 308 310 308 307 318 325 326 325 325 326 326 327 329 330 329 329 329 329 328 326 325
319 316 315 318 312 309 308 307 302 302 300 296 300 301 303 306 303 304 308 311 306 316 324 324 323 323 324 322 321 322 322 325 327 328 327 328 326 325
320 316 314 314 310 306 305 302 299 302 300 300 299 300 301 302 301 302 304 304 309 318 320 321 322 322 321 321 319 318 316 316 318 321 323 324 325 324
321 318 315 314 310 305 304 300 300 299 300 299 299 299 299 301 299 300 300 303 305 310 313 316 318 319 320 319 318 320 317 314 314 314 316 317 318 321
319 317 315 316 318 309 304 301 299 299 299 299 298 298 299 298 298 298 298 301 303 305 305 306 307 307 308 312 314 318 319 316 314 314 313 313 313 315
317 316 315 322 319 320 316 311 305 300 300 300 299 298 299 298 298 298 298 299 298 304 304 304 305 305 306 306 314 317 318 316 315 315 314 313 312 313
318 316 316 318 316 311 318 317 313 317 315 305 301 300 299 300 299 297 297 299 299 303 304 301 303 303 306 307 314 315 316 315 315 315 315 313 312 312
319 317 314 313 311 310 306 299 300 303 306 309 305 303 302 302 302 301 299 300 301 303 304 299 302 302 304 306 313 315 315 313 314 315 313 312 310 308
320 318 316 314 314 314 300 297 297 299 309 311 310 310 311 313 311 302 299 297 297 299 302 301 301 301 302 304 306 312 312 310 313 314 313 310 307 306
319 319 319 314 312 313 298 295 294 296 297 297 298 302 305 303 315 306 300 298 297 298 302 301 300 299 298 302 302 302 301 306 308 308 308 307 305 303
320 316 316 312 309 307 301 295 296 297 300 297 299 301 300 300 301 301 302 302 299 299 304 304 300 299 297 297 297 299 300 300 302 302 303 303 303 304
319 316 315 309 306 304 302 301 303 305 298 297 298 298 298 299 301 301 300 299 301 302 303 299 298 297 295 293 293 297 299 300 299 298 298 300 301 302
322 317 312 306 304 303 304 303 304 299 297 296 297 297 298 300 300 299 300 300 299 300 303 299 296 294 293 291 293 294 296 296 297 298 299 298 295 294
319 318 313 310 308 304 301 302 299 297 297 297 298 298 299 299 298 297 297 298 296 297 299 298 296 294 292 292 293 291 293 293 296 296 296 296 294 294
313 312 305 304 302 298 298 298 297 299 300 299 299 298 298 298 297 296 296 295 293 293 294 295 295 295 294 293 291 292 292 293 295 296 295 294 296 296
309 307 307 305 306 303 299 299 299 302 300 300 298 298 298 297 296 296 295 293 293 293 292 292 291 291 292 292 299 291 291 289 292 292 294 293 290 291
316 307 306 305 307 303 302 299 300 301 300 299 298 298 299 297 296 295 294 293 292 292 292 291 290 289 287 288 291 299 289 288 289 289 291 290 287 289
313 306 307 306 305 304 303 301 301 300 299 298 297 299 297 296 296 294 294 292 291 292 291 290 289 289 288 288 288 291 297 289 288 287 289 290 289 295
310 307 308 306 306 305 303 302 301 300 298 297 297 298 296 297 293 293 294 296 295 292 290 290 291 298 292 290 288 288 289 294 292 289 289 287 288 289
308 308 309 309 309 306 304 302 300 299 297 296 297 297 296 295 294 293 294 293 292 291 290 291 291 290 289 287 286 286 286 287 291 293 293 292 289 286
308 307 309 311 307 304 303 302 301 301 299 298 298 296 296 293 293 294 294 293 292 291 290 289 289 289 288 287 289 285 284 285 285 286 287 293 294 295